EHI
0 0 0 0 0 0 0 0 0 0 0 0 0 0 0 0 0 0 4 13 17 14 10 8 7 5 5 2 1 1 1 1 0 0 0 0 0 0 1 2 2 1 0
0 0 0 0 0 0 0 0 0 0 0 0 0 0 0 0 0 0 2 8 14 15 14 11 8 7 6 4 3 1 1 0 0 0 0 0 0 0 0 1 1 0 1
0 0 1 0 0 0 0 0 0 0 0 0 0 0 0 0 0 0 1 3 8 12 15 13 11 9 8 8 6 4 2 1 1 1 1 1 0 0 0 0 0 0 1
0 0 0 0 0 0 0 0 0 0 0 0 0 0 0 0 0 0 0 1 3 6 9 12 12 11 12 11 9 7 5 4 3 2 2 1 0 0 0 0 0 0 1
0 0 0 0 0 0 0 0 0 0 0 0 0 0 0 0 0 0 0 0 0 1 3 7 9 11 11 11 9 7 5 5 4 3 1 1 0 0 0 0 0 0 0
1 1 1 0 0 0 0 0 0 0 0 0 0 0 0 0 0 0 0 0 0 0 0 2 4 6 7 7 7 5 4 3 2 1 0 0 0 0 0 0 0 0 0
3 3 3 1 1 0 0 0 0 0 0 0 1 1 0 0 0 0 0 0 0 0 0 0 0 1 2 4 4 4 3 2 1 1 0 0 0 0 0 0 0 0 0
4 5 4 3 2 1 0 0 0 0 1 1 2 2 1 1 0 0 0 0 0 0 0 0 0 0 0 1 1 2 3 3 2 2 2 1 0 0 0 0 0 0 0
4 5 4 3 2 1 0 0 1 1 2 3 3 3 3 2 1 1 0 0 0 0 0 0 0 0 0 0 0 1 2 4 4 5 5 3 2 1 0 0 0 0 0
5 6 5 3 1 0 1 1 2 3 3 3 3 3 3 3 2 1 0 0 0 0 0 0 1 0 0 0 0 0 1 2 3 5 6 5 5 3 2 0 0 0 0
5 5 5 4 2 1 2 3 3 3 3 3 3 3 3 3 3 2 1 1 0 0 0 0 0 0 0 0 0 0 0 0 1 3 4 5 5 5 3 1 0 0 0
4 4 5 5 4 3 3 3 3 3 3 3 3 3 3 3 3 3 2 1 0 0 0 0 0 0 0 0 0 1 1 0 0 1 1 3 3 3 2 0 0 0 0
3 3 4 4 5 5 4 3 3 3 3 3 3 3 3 3 3 3 2 1 0 0 0 0 0 0 0 0 0 1 1 0 0 0 0 1 1 1 0 0 0 0 0
4 4 4 4 5 6 5 4 3 3 3 3 3 4 3 3 3 2 1 1 0 0 0 0 0 0 0 0 0 0 0 0 0 0 0 0 0 0 0 0 0 0 0
4 4 3 4 6 7 7 6 5 4 4 4 4 5 4 4 3 2 1 0 0 0 0 0 0 0 0 0 0 0 0 0 0 0 0 0 0 0 0 0 0 0 0
5 4 4 6 7 8 9 8 7 6 6 6 6 6 6 6 5 5 3 1 1 2 1 1 1 0 0 0 0 0 0 0 0 0 0 0 0 0 0 0 0 0 0
7 6 6 7 8 10 11 9 8 7 7 6 6 6 6 6 6 6 5 3 3 3 3 2 2 1 0 0 0 0 0 0 0 0 0 0 0 0 0 0 0 0 0
7 7 7 8 9 11 10 8 6 6 6 6 6 6 6 6 6 6 5 4 3 3 3 3 2 1 0 0 0 0 0 0 0 0 0 0 0 0 0 0 0 0 0
8 8 8 8 9 9 8 6 5 4 4 5 6 5 5 6 7 6 4 4 4 3 3 3 3 2 2 1 0 0 0 0 0 0 0 0 0 0 0 0 0 0 0
8 8 9 8 7 6 5 4 4 3 3 3 4 5 5 5 6 5 4 4 4 4 3 3 3 3 3 2 1 0 0 0 0 0 0 0 0 0 0 0 0 0 0
7 7 8 7 5 4 3 3 3 2 2 2 4 5 5 5 5 4 3 3 4 3 3 3 2 2 2 2 1 0 0 0 0 0 0 0 0 0 0 0 0 0 0
6 6 7 8 6 4 2 1 1 2 2 2 3 4 3 3 3 3 3 3 3 2 2 1 1 1 1 1 1 1 0 0 0 0 0 0 0 0 0 0 0 0 0
8 6 6 7 6 3 1 0 0 1 1 1 1 2 1 1 1 2 2 2 1 1 1 0 0 0 0 1 2 2 1 0 0 0 0 0 0 0 0 0 0 0 0
7 6 5 5 4 2 1 0 0 0 0 0 0 1 1 0 0 1 1 1 0 0 0 0 0 0 0 1 2 2 1 0 0 0 0 0 0 0 0 0 0 0 0
5 4 3 3 4 3 1 0 0 0 0 0 0 0 1 0 0 0 0 0 0 0 0 0 0 0 0 0 1 1 0 0 0 0 0 0 0 0 0 0 0 0 0
3 3 3 4 5 4 2 1 0 0 0 0 0 0 1 0 0 0 0 0 0 0 0 0 0 0 0 0 0 0 0 0 0 0 0 0 0 0 0 0 0 0 0
Wind_Speed
3 2 2 2 1 1 1 1 1 1 1 1 1 3 3 4 5 4 4 12 12 12 13 13 12 12 12 12 12 11 12 12 11 11 11 11 11 10 10 10 10 10 9
3 3 2 1 1 1 1 1 1 1 0 0 0 1 2 4 4 4 3 7 12 12 12 12 12 12 12 12 12 12 12 12 12 11 11 11 11 11 11 11 11 10 10
4 3 2 1 1 1 1 1 1 1 1 1 1 0 1 3 4 4 4 3 5 10 11 11 11 11 12 12 12 12 11 12 12 11 11 11 10 10 11 11 11 11 10
4 3 2 1 1 1 1 1 1 1 0 0 0 0 0 1 3 4 4 4 3 4 8 11 10 10 10 11 12 12 12 11 11 12 12 12 11 11 11 11 11 11 10
4 3 2 1 1 1 0 1 1 1 1 0 0 0 0 1 2 4 4 4 4 4 3 7 10 10 10 11 12 13 13 13 13 13 13 13 13 12 12 12 12 11 11
3 3 2 1 1 1 0 1 1 1 1 1 0 1 1 1 1 2 4 3 3 4 4 4 4 6 10 10 10 11 12 12 13 13 14 14 14 13 13 13 13 13 13
2 2 1 1 1 1 1 1 1 1 0 1 1 2 2 1 0 1 2 2 3 3 3 4 3 3 3 8 8 9 11 12 13 13 13 14 14 14 13 13 13 13 13
2 2 2 2 1 1 0 0 1 1 0 1 1 1 2 3 2 1 1 2 3 2 3 4 3 3 2 2 3 6 8 10 12 12 12 12 13 13 14 14 13 12 12
2 1 2 2 1 1 1 1 1 2 1 1 1 2 2 2 2 2 0 1 1 2 2 2 3 3 3 2 2 4 6 7 9 11 11 10 10 11 12 12 12 12 12
1 1 2 2 1 1 0 1 1 1 2 1 1 1 2 3 2 1 2 0 1 2 2 2 2 2 2 2 2 1 3 4 4 5 7 7 8 9 9 10 10 10 11
0 0 1 1 1 0 0 0 0 1 1 2 1 1 0 0 1 2 1 1 1 0 1 1 1 1 1 2 1 1 1 1 2 3 3 2 3 4 5 7 8 8 9
0 0 1 1 1 1 1 1 1 1 1 1 1 1 1 1 1 2 2 1 1 1 1 0 1 1 1 1 1 2 2 2 2 2 1 1 1 1 2 3 5 6 7
1 1 1 1 1 1 1 1 1 1 1 1 1 1 1 1 1 2 2 1 0 1 1 1 1 0 1 1 1 3 3 4 4 3 2 2 1 1 1 1 2 2 2
2 1 1 1 1 1 1 1 0 1 1 1 1 1 1 0 1 2 2 2 1 1 1 1 2 2 2 2 3 4 4 6 5 4 3 3 3 3 3 3 3 3 3
1 1 1 1 1 1 1 1 0 0 1 1 0 0 1 0 1 1 1 2 3 1 0 1 2 2 2 3 4 4 4 6 7 6 5 4 4 4 4 4 4 4 4
1 1 1 1 1 0 0 1 1 1 2 2 2 2 2 1 1 1 1 1 2 3 2 1 1 1 2 4 6 4 5 8 8 7 7 7 7 6 6 6 5 5 5
1 1 1 1 2 2 2 3 3 3 4 3 3 3 3 2 2 2 2 2 2 3 4 1 2 2 4 4 4 4 4 4 5 9 9 9 9 8 8 7 7 6 6
2 2 3 3 3 4 4 4 4 5 5 5 4 4 4 3 3 3 3 3 3 3 4 4 2 2 3 3 3 4 4 5 4 8 9 9 8 8 8 7 6 6 6
3 3 4 5 5 4 5 5 5 5 5 5 4 5 4 4 4 3 4 3 3 4 3 4 2 2 2 2 3 4 5 3 4 5 7 7 7 7 7 6 6 5 5
5 5 5 5 5 5 5 5 6 5 5 5 5 5 4 4 4 4 4 4 4 5 4 4 3 2 2 2 3 3 3 2 3 4 5 5 5 6 6 5 5 5 5
6 5 6 5 5 5 5 5 5 5 5 5 5 5 6 9 9 6 5 4 4 4 4 4 3 3 2 2 2 1 2 2 2 2 2 3 3 3 4 5 5 5 4
5 6 6 5 5 5 7 9 6 5 5 5 5 4 6 8 10 11 11 9 6 5 4 4 3 2 1 1 1 2 2 2 1 2 1 2 2 2 2 2 3 4 4
6 6 5 5 6 6 8 9 9 5 5 4 4 4 5 6 7 6 9 12 10 10 7 5 4 2 2 1 2 2 2 2 1 1 1 1 2 2 2 2 3 3 4
5 5 5 5 5 6 8 8 8 5 5 4 4 4 4 4 5 6 6 7 6 5 5 4 3 2 2 2 3 3 2 2 1 2 2 1 2 2 2 2 3 3 3
5 5 4 5 5 5 7 8 7 5 5 5 5 5 5 5 7 8 7 6 6 5 6 7 6 5 6 5 4 3 3 3 2 2 1 1 1 2 2 2 3 3 3
5 5 4 4 4 4 6 8 7 4 5 4 5 5 7 7 7 7 5 5 5 3 3 5 5 6 5 5 6 3 3 2 1 1 2 1 1 1 2 2 2 2 2
Wind_Direction
161 166 183 195 201 187 183 197 236 253 299 312 206 169 165 167 168 171 179 184 186 188 189 191 192 194 194 195 196 196 197 195 193 194 196 196 195 193 194 193 193 192 194
154 154 151 156 177 185 190 176 182 186 86 95 87 160 170 171 172 170 179 187 192 195 197 197 199 201 201 201 202 203 203 201 199 200 202 203 203 201 199 199 200 201 202
148 148 152 164 179 169 151 135 102 85 84 68 58 56 167 168 172 172 175 179 193 202 203 204 206 205 204 204 205 206 207 207 205 205 207 208 208 206 205 206 207 208 208
151 145 158 186 186 148 135 133 127 98 62 68 36 323 120 156 168 175 181 185 189 202 209 208 209 211 212 212 212 212 212 213 211 210 211 211 211 210 208 208 211 212 212
163 153 165 195 176 126 145 178 122 147 168 258 278 280 161 167 188 183 187 190 190 196 201 211 213 215 220 222 221 220 217 217 218 218 216 216 216 216 214 214 215 217 217
173 161 164 188 160 114 107 151 151 155 186 200 284 348 332 227 196 190 194 186 189 199 200 208 218 225 228 229 230 229 225 221 220 221 222 221 222 220 219 219 220 222 223
186 179 165 154 129 148 211 192 138 110 329 112 65 4 348 340 260 209 186 177 193 201 192 207 212 214 233 235 236 235 232 228 223 223 225 226 226 222 220 222 223 223 226
186 174 164 163 167 166 339 329 135 143 257 139 132 95 351 347 341 274 176 175 188 184 187 205 215 215 226 231 241 236 236 235 231 228 227 227 227 226 222 223 225 224 224
186 179 170 175 186 174 203 247 198 169 204 250 176 154 156 228 296 324 293 190 170 148 178 198 203 212 216 224 246 249 237 236 235 232 232 231 228 226 225 225 226 223 222
221 191 180 186 182 161 206 257 206 190 171 230 255 209 184 172 170 296 333 14 158 165 182 201 201 195 202 221 237 228 233 237 236 234 235 233 229 223 221 224 228 229 226
331 191 138 154 165 175 214 285 292 202 179 192 209 216 220 157 150 157 272 314 348 292 179 178 141 152 200 212 207 121 152 211 214 223 229 235 229 222 225 230 233 235 232
308 264 173 195 188 184 222 252 260 237 216 207 197 158 159 168 191 169 196 233 261 311 33 51 97 122 129 153 157 127 146 152 153 160 165 199 229 241 245 248 245 243 241
226 244 232 231 227 217 228 239 270 277 246 222 207 196 180 194 174 159 155 182 190 294 24 29 27 101 120 94 93 111 104 102 110 117 118 112 97 77 39 351 322 294 274
211 218 219 232 227 211 214 199 249 279 293 225 232 207 152 199 143 149 156 151 128 10 30 19 16 40 69 74 76 82 78 82 85 89 90 87 83 77 71 62 50 44 47
199 202 214 225 231 208 174 132 103 317 19 24 16 93 100 49 116 141 158 161 156 154 33 28 34 35 66 70 69 70 73 77 76 72 69 66 69 73 75 75 72 60 51
176 106 84 123 134 111 86 95 63 32 62 40 51 58 49 36 52 55 73 88 133 149 133 57 53 47 70 77 70 66 72 75 72 73 70 67 68 69 68 70 73 72 68
132 128 111 96 88 80 72 74 68 62 61 46 44 57 46 47 53 44 50 68 83 110 120 73 50 58 61 72 64 62 65 59 63 72 72 68 66 65 63 61 61 64 64
93 101 95 86 83 75 68 72 72 66 66 54 43 52 42 52 52 45 57 70 80 91 118 114 60 50 63 77 76 73 70 71 69 73 73 71 67 64 61 58 55 55 56
80 78 78 76 74 71 71 71 74 71 66 58 51 55 43 55 53 51 62 70 76 81 87 107 85 57 63 68 68 67 66 55 65 73 70 67 63 61 57 55 55 52 50
82 79 78 77 75 73 75 75 76 74 69 60 55 56 50 58 62 65 67 71 85 85 85 93 85 64 61 54 69 69 56 33 42 53 49 54 50 50 47 46 52 53 48
87 84 83 76 74 78 80 84 82 82 76 68 59 57 63 69 65 66 73 77 89 89 89 92 87 70 52 53 59 70 90 56 30 34 34 26 24 19 17 23 36 43 40
83 82 81 80 75 75 80 81 84 79 77 76 70 58 64 60 61 62 66 71 85 99 104 98 88 93 77 75 86 99 110 84 12 326 52 9 25 5 348 1 13 22 23
88 83 82 83 80 76 80 82 81 82 78 73 72 68 71 63 59 63 62 60 60 68 88 114 112 125 131 155 126 103 105 112 178 269 91 7 345 328 316 356 4 9 12
96 92 83 82 82 75 78 80 80 76 73 67 68 77 81 62 64 74 72 62 53 48 59 79 104 112 117 135 140 146 145 107 41 2 79 73 324 316 320 329 335 345 353
96 88 85 86 84 70 72 85 83 76 71 56 52 64 76 71 67 78 79 72 58 41 53 65 67 66 66 73 90 92 78 79 43 341 3 95 327 329 329 324 328 337 336
108 100 86 80 83 70 70 83 84 87 78 63 49 48 59 70 69 75 84 86 76 47 49 50 45 39 43 48 56 84 121 115 111 329 316 74 355 17 348 322 323 332 332